User: anonymous   Login
Location: Unspecified
(0.0000°N, 0.0000°E)
Time: 19:17:03
(UTC+00:00)
Language:

STARLINK-11281 [DTC] - Orbit

View from above orbital plane
View from above orbital plane
View from above satellite
View from above satellite

Ground track
Ground track

The orbit is defined by the following mean orbital elements,

1 60996U          26145.35732292 +.00000000 +00000-0 +14633-4 0 00005
2 60996  53.1601 263.5009 0000783  68.2193 291.8908 15.69715674    08
Epoch (UTC): 25 May 2026 08:34:32
Eccentricity: 0.0000783
inclination: 53.1601°
perigee height: 359 km
apogee height: 360 km
right ascension of ascending node: 263.5009°
argument of perigee: 68.2193°
revolutions per day: 15.69715674
mean anomaly at epoch: 291.8908°

The dashed part of the orbit path shows where the satellite is in the earth's shadow,  

DLR